{"data":{"norad_id":66641,"epoch":"2026-05-24T17:28:55.588224Z","epoch_age_seconds":102435,"freshness":"FRESH","line1":"1 66641U 25271AA  26144.72842116  .00008705  00000+0  30563-3 0  9997","line2":"2 66641  53.1608 147.0803 0001477  90.2099 269.9072 15.30205126 29202","mean_motion":15.30205126,"eccentricity":0.0001477,"inclination_deg":53.1608,"raan_deg":147.0803,"arg_perigee_deg":90.2099,"mean_anomaly_deg":269.9072,"bstar":0.00030563,"rev_number":2920,"period_min":94.105030465046,"perigee_km":474.18752630995,"apogee_km":476.21200199008,"semimajor_km":6853.33676415,"source":"CELESTRAK","updated_at":"2026-05-25T13:38:21.299253Z"}}